(512909) = 2016 WA54

Discovered at Mount Lemmon on 2009-11-09 by Mt. Lemmon Survey.

Orbit

Orbit type: Main Belt

Note: WebGL enabled browser required.

epoch2023-09-13.0
epoch JD2460200.5
perihelion date2020-05-17.02512
perihelion JD2458986.52512
argument of perihelion (°)161.45692
ascending node (°)259.96512
inclination (°)1.33549
eccentricity0.1897664
perihelion distance (AU)1.8718035
Tisserand w.r.t. Jupiter3.6
ΔV w.r.t. Earth (km/sec)8.5
semimajor axis (AU)2.3102024
mean anomaly (°)340.75207
mean daily motion (°/day)0.28069120
aphelion distance (AU)2.749
period (years)3.51
P-vector [x]0.47826905
P-vector [y]0.80276803
P-vector [z]0.35612105
Q-vector [x]-0.87791344
Q-vector [y]0.44762966
Q-vector [z]0.16998727
absolute magnitude18.61
phase slope0.15
uncertainty0
referenceMPEC 2024-A65
observations used130
oppositions7
arc length (days)5169
first opposition used2009
last opposition used2024
residual rms (arc-secs)0.60
perturbers coarse indicatorM-v
perturbers precise indicator003Ek
first observation date used2009-11-09.0
last observation date used2024-01-04.0
computer nameMPCLINUX
JD of orbit computation2458106.700902
perihelion JD uncertainty (days)7.8432E-05
argument of perihelion uncertainty (°)1.9223E-04
ascending node uncertainty (°)1.8981E-04
inclination uncertainty (°)8.7400E-06
eccentricity uncertainty 7.8617E-08
perihelion distance uncertainty (AU)1.8232E-07
Minimum Orbit Intersection Distances (in AU)
for orbit epoch: 2460200.5, reference: E2024-A05
Mercury1.56131
Venus1.15044
Earth0.88361
Mars0.34029
Jupiter2.57183
Saturn7.05537
Uranus15.9638
Neptune27.7544

Observations

137 total observations over interval: 2002 12 11.21904 – 2024 01 04.421866
These data are available for download (format description).

